Fairacres, NM

11:48 AM MDT on August 31, 2016 (GMT -0600)
Las Cruces International

Weather History for KLRU - August, 2013

Change the Weather History Date:

Tuesday, August 13, 2013

  Actual Average Record
Temperature  
Mean Temperature 78 °F -  
Max Temperature 89 °F 89 °F 100 °F (2002)
Min Temperature 68 °F 67 °F 63 °F (2016)
Cooling Degree Days 14    
Growing Degree Days 28 (Base 50)    
Moisture  
Dew Point 60 °F    
Average Humidity 57    
Maximum Humidity 88    
Minimum Humidity 28    
Precipitation  
Precipitation 0.10 in - - ()
Sea Level Pressure  
Sea Level Pressure 30.15 in    
Wind  
Wind Speed 6 mph (North)    
Max Wind Speed 17 mph    
Max Gust Speed 24 mph    
Visibility 10 miles    
Events Rain , Thunderstorm    
Averages and records for this station are not official NWS values.
T = Trace of Precipitation, MM = Missing Value Source: NWS Daily Summary

Daily Weather History Graph

Daily Weather History Graph

Search for Another Location

Airport or City:

Trip Planner

Search our weather history database for the weather conditions in past years. The results will help you decide how hot, cold, wet, or windy it might be!

Date:

Astronomy

Aug. 13, 2013 Rise Set
Actual Time 6:30 AM MDT 7:53 PM MDT
Civil Twilight 6:04 AM MDT 8:19 PM MDT
Nautical Twilight 5:33 AM MDT 8:50 PM MDT
Astronomical Twilight 5:01 AM MDT 9:22 PM MDT
Moon 1:01 PM MDT (8/13) 11:59 PM MDT (8/13)
Length of Visible Light 14h 14m
Length of Day
13h 23m
Waxing Crescent, 42% of the Moon is Illuminated
Aug 13
Waxing Crescent
Aug 14
First Quarter
Aug 20
Full
Aug 28
Last Quarter
Sep 5
New

Hourly Weather History & Observations

Time (MDT) Temp. Heat Index Dew Point Humidity Pressure Visibility Wind Dir Wind Speed Gust Speed Precip Events Conditions
12:15 AM 76.8 °F - 61.2 °F 58% 30.14 in 10.0 mi North 4.6 mph - N/A   Clear
12:35 AM 77.2 °F - 60.6 °F 56% 30.14 in 10.0 mi North 6.9 mph - N/A   Clear
12:55 AM 76.1 °F - 61.2 °F 60% 30.14 in 10.0 mi North 8.1 mph - N/A   Clear
1:15 AM 76.1 °F - 60.8 °F 59% 30.14 in 10.0 mi North 10.4 mph - N/A   Clear
1:35 AM 76.3 °F - 60.8 °F 59% 30.14 in 10.0 mi NNW 8.1 mph - N/A   Scattered Clouds
1:55 AM 75.6 °F - 61.5 °F 62% 30.14 in 10.0 mi NW 8.1 mph - N/A   Mostly Cloudy
2:15 AM 76.1 °F - 60.4 °F 58% 30.15 in 10.0 mi NW 9.2 mph - N/A Thunderstorm Overcast
2:35 AM 74.3 °F - 61.3 °F 64% 30.16 in 10.0 mi West 17.3 mph 24.2 mph N/A   Overcast
2:55 AM 71.2 °F - 62.6 °F 74% 30.16 in 10.0 mi WNW 11.5 mph 17.3 mph N/A   Overcast
3:15 AM 69.3 °F - 63.5 °F 82% 30.16 in 10.0 mi WNW 13.8 mph - N/A Rain Light Rain
3:35 AM 68.7 °F - 64.0 °F 85% 30.16 in 10.0 mi NW 15.0 mph - 0.01 in Rain Rain
3:55 AM 68.2 °F - 64.4 °F 88% 30.16 in 10.0 mi NNW 12.7 mph - 0.03 in Rain Rain
4:15 AM 72.1 °F - 61.7 °F 70% 30.16 in 10.0 mi NNW 11.5 mph - 0.03 in Rain , Thunderstorm Light Thunderstorms and Rain
4:35 AM 70.7 °F - 59.7 °F 68% 30.16 in 10.0 mi WNW 4.6 mph - 0.03 in Rain Light Rain
4:55 AM 69.4 °F - 62.1 °F 77% 30.16 in 10.0 mi NW 3.5 mph - 0.04 in Rain Light Rain
5:15 AM 69.1 °F - 64.4 °F 85% 30.16 in 10.0 mi WSW 4.6 mph - N/A   Light Drizzle
5:35 AM 70.0 °F - 65.5 °F 86% 30.16 in 10.0 mi SW 3.5 mph - N/A Thunderstorm Unknown
5:55 AM 70.5 °F - 64.0 °F 80% 30.16 in 10.0 mi SSE 4.6 mph - N/A   Overcast
6:15 AM 71.1 °F - 61.5 °F 72% 30.16 in 10.0 mi SSE 8.1 mph - N/A   Drizzle
6:35 AM 71.2 °F - 62.8 °F 75% 30.17 in 10.0 mi SSW 6.9 mph - N/A Rain , Thunderstorm Light Thunderstorms and Rain
6:55 AM 71.2 °F - 62.6 °F 74% 30.17 in 10.0 mi West 10.4 mph - N/A Rain , Thunderstorm Light Thunderstorms and Rain
7:15 AM 71.2 °F - 61.9 °F 72% 30.17 in 10.0 mi West 12.7 mph - N/A Rain , Thunderstorm Light Thunderstorms and Rain
7:35 AM 69.8 °F - 62.4 °F 77% 30.18 in 10.0 mi West 8.1 mph - N/A   Scattered Clouds
7:55 AM 69.1 °F - 63.3 °F 82% 30.19 in 10.0 mi SW 9.2 mph - N/A Thunderstorm Clear
8:15 AM 69.8 °F - 62.8 °F 78% 30.20 in 10.0 mi SW 3.5 mph - N/A Rain , Thunderstorm Light Thunderstorms and Rain
8:35 AM 69.3 °F - 63.5 °F 82% 30.21 in - Calm Calm - 0.03 in Rain Light Rain
8:55 AM 69.3 °F - 62.1 °F 78% 30.21 in 10.0 mi Calm Calm - 0.03 in Rain Light Rain
9:15 AM 70.2 °F - 61.5 °F 74% 30.21 in 10.0 mi Calm Calm - N/A Rain Light Rain
9:35 AM 70.7 °F - 60.4 °F 70% 30.23 in 10.0 mi Calm Calm - N/A   Scattered Clouds
9:55 AM 70.9 °F - 60.6 °F 70% 30.23 in 10.0 mi Calm Calm - N/A   Clear
10:15 AM 71.6 °F - 60.3 °F 67% 30.23 in 10.0 mi Calm Calm - N/A   Clear
10:35 AM 71.8 °F - 61.0 °F 69% 30.23 in 10.0 mi Calm Calm - N/A   Clear
10:55 AM 72.7 °F - 61.3 °F 67% 30.23 in 10.0 mi NW 4.6 mph - N/A   Clear
11:15 AM 73.6 °F - 62.1 °F 67% 30.22 in 10.0 mi North 3.5 mph - N/A   Clear
11:35 AM 74.3 °F - 61.0 °F 63% 30.22 in 10.0 mi North 4.6 mph - N/A   Clear
11:55 AM 76.6 °F - 61.3 °F 59% 30.21 in 10.0 mi North 5.8 mph - N/A   Clear
12:15 PM 77.9 °F - 61.2 °F 56% 30.20 in 10.0 mi NE 5.8 mph - N/A   Clear
12:35 PM 78.1 °F - 61.9 °F 57% 30.20 in 10.0 mi NE 5.8 mph - N/A   Clear
12:55 PM 79.5 °F - 61.2 °F 53% 30.19 in 10.0 mi NNE 6.9 mph - N/A   Clear
1:15 PM 81.1 °F 81.8 °F 60.4 °F 49% 30.19 in 10.0 mi NE 6.9 mph - N/A   Clear
1:35 PM 81.7 °F 82.4 °F 61.2 °F 50% 30.18 in 10.0 mi NE 5.8 mph - N/A   Clear
1:55 PM 82.9 °F 83.2 °F 60.4 °F 46% 30.17 in 10.0 mi East 5.8 mph - N/A   Clear
2:15 PM 84.4 °F 84.6 °F 60.6 °F 45% 30.16 in 10.0 mi East 4.6 mph - N/A   Clear
2:35 PM 84.0 °F 83.5 °F 58.1 °F 41% 30.16 in 10.0 mi Calm Calm - N/A   Clear
2:55 PM 85.1 °F 83.9 °F 55.9 °F 37% 30.15 in 10.0 mi Calm Calm - N/A   Clear
3:15 PM 86.2 °F 84.4 °F 53.8 °F 33% 30.14 in 10.0 mi Calm Calm - N/A   Clear
3:35 PM 87.3 °F 85.5 °F 55.0 °F 33% 30.14 in 10.0 mi Calm Calm - N/A   Clear
3:55 PM 88.0 °F 86.1 °F 54.3 °F 32% 30.12 in 10.0 mi NNE 3.5 mph - N/A   Clear
4:15 PM 88.3 °F 86.3 °F 53.8 °F 31% 30.12 in 10.0 mi East 3.5 mph - N/A   Clear
4:35 PM 88.5 °F 86.5 °F 54.1 °F 31% 30.12 in 10.0 mi NE 4.6 mph - N/A   Clear
4:55 PM 87.8 °F 85.9 °F 54.5 °F 32% 30.11 in 10.0 mi Calm Calm - N/A   Clear
5:55 PM 89.2 °F - 52.2 °F 28% 30.09 in 10.0 mi NE 3.5 mph - N/A   Clear
6:15 PM 88.0 °F - 52.2 °F 29% 30.09 in 10.0 mi SE 3.5 mph - N/A   Clear
6:35 PM 88.3 °F - 52.5 °F 29% 30.08 in 10.0 mi SE 4.6 mph - N/A   Clear
6:55 PM 87.8 °F - 52.9 °F 30% 30.08 in 10.0 mi Calm Calm - N/A   Clear
7:15 PM 87.4 °F 85.3 °F 53.4 °F 31% 30.09 in 10.0 mi Calm Calm - N/A   Clear
7:35 PM 86.5 °F 84.6 °F 53.8 °F 32% 30.09 in 10.0 mi Calm Calm - N/A   Clear
7:55 PM 84.6 °F 83.5 °F 56.5 °F 38% 30.09 in 10.0 mi Calm Calm - N/A   Clear
8:15 PM 80.8 °F 82.8 °F 65.7 °F 60% 30.10 in 10.0 mi Calm Calm - N/A   Clear
8:35 PM 82.2 °F 82.6 °F 60.3 °F 47% 30.10 in 10.0 mi SSW 3.5 mph - N/A   Clear
8:55 PM 81.1 °F 81.3 °F 57.7 °F 45% 30.10 in 10.0 mi SSE 3.5 mph - N/A   Clear
9:15 PM 80.6 °F 81.4 °F 60.4 °F 50% 30.11 in 10.0 mi South 3.5 mph - N/A   Clear
9:35 PM 79.5 °F - 59.5 °F 50% 30.10 in 10.0 mi SSE 4.6 mph - N/A   Clear
9:55 PM 78.1 °F - 59.4 °F 52% 30.11 in 10.0 mi South 5.8 mph - N/A   Clear
10:15 PM 78.8 °F - 58.6 °F 50% 30.12 in 10.0 mi SSE 4.6 mph - N/A   Clear
10:35 PM 77.9 °F - 58.1 °F 50% 30.13 in 10.0 mi SE 4.6 mph - N/A   Clear
10:55 PM 76.6 °F - 58.1 °F 53% 30.14 in 10.0 mi SE 4.6 mph - N/A   Clear
11:15 PM 76.6 °F - 56.8 °F 50% 30.14 in 10.0 mi ESE 4.6 mph - N/A   Clear
11:35 PM 76.8 °F - 55.8 °F 48% 30.14 in 10.0 mi ESE 3.5 mph - N/A   Clear
11:55 PM 77.7 °F - 53.8 °F 43% 30.14 in 10.0 mi SE 4.6 mph - N/A   Clear